Lapse_Rate
6.7 6.8 6.8 6.7 6.6 7.0 7.1 6.7 6.4 6.0 5.9 6.0 6.0 6.1 6.3 6.5 6.3 6.3 6.2 6.3 6.2 6.2 6.2 6.3 6.1 6.0 6.0 6.0 5.9 6.0 5.9 6.0 5.9 5.8 5.8 5.7 5.8 5.9 5.9 5.8 5.7 5.6 5.5 5.5 5.5 5.4 5.5 5.6 5.7
6.7 6.6 6.8 6.7 7.3 7.7 7.2 6.6 6.4 5.9 5.9 5.8 6.2 6.4 6.2 6.6 6.7 6.5 6.3 6.2 6.2 6.2 6.2 6.3 6.4 6.3 6.1 6.2 6.2 6.1 6.1 6.0 6.0 5.9 5.8 5.9 6.0 6.0 6.1 5.9 5.8 5.7 5.7 5.7 5.5 5.6 5.7 5.6 5.6
6.8 6.7 6.9 6.5 7.4 7.6 7.1 6.6 6.2 5.8 5.7 5.8 6.4 6.4 6.5 6.6 6.6 6.5 6.3 6.2 6.3 6.3 6.3 6.2 6.3 6.3 6.2 6.2 6.3 6.3 6.2 6.1 6.1 6.1 6.0 6.1 6.2 6.2 6.1 6.1 6.1 6.0 5.9 5.8 5.7 5.9 5.9 5.7 5.7
6.7 7.0 6.8 6.9 7.1 6.4 6.8 6.5 6.2 5.8 5.8 6.0 6.1 6.5 6.6 6.6 6.5 6.4 6.3 6.3 6.5 6.4 6.3 6.3 6.3 6.2 6.2 6.3 6.2 6.2 6.1 6.0 6.0 6.1 6.1 6.1 6.0 6.0 6.0 6.1 6.1 6.2 5.9 6.0 5.9 5.7 6.0 6.0 6.0
6.7 6.6 6.3 6.4 6.5 6.3 6.3 6.2 6.1 5.9 5.8 6.0 6.0 6.4 6.8 6.5 6.3 6.3 6.3 6.3 6.3 5.8 6.2 6.2 6.2 6.3 6.3 6.3 6.3 6.2 6.2 6.1 6.2 6.1 6.1 6.1 6.1 6.1 6.1 6.2 6.1 6.2 6.2 6.3 6.1 5.9 6.3 6.1 6.1
6.4 6.5 6.2 6.3 6.1 5.9 6.0 6.1 5.8 5.7 6.0 6.1 6.2 6.4 6.6 6.3 6.2 6.2 6.2 6.1 6.0 5.9 6.0 6.2 6.3 6.4 6.3 6.2 6.2 6.2 6.2 6.3 6.2 6.2 6.1 6.1 6.1 6.1 6.1 6.1 6.1 6.2 6.3 6.3 6.3 6.7 6.3 6.3 6.1
6.3 6.1 5.9 5.8 5.8 5.7 5.9 5.8 5.7 5.7 5.7 5.7 6.0 5.8 6.3 6.1 6.1 6.2 6.2 6.1 6.1 6.2 6.3 6.3 6.4 6.4 6.3 6.2 6.1 6.1 6.2 6.0 6.1 6.2 6.1 6.0 6.0 6.0 5.9 5.9 6.3 6.2 6.3 6.6 6.5 6.4 6.4 6.3 6.1
6.1 6.4 6.0 5.9 6.0 5.8 5.8 5.7 5.8 5.7 5.9 6.0 5.7 5.8 6.2 6.2 6.1 6.2 6.2 6.1 6.1 6.3 6.3 6.4 6.4 6.3 6.3 6.3 6.2 5.9 6.1 6.1 6.1 6.2 6.1 6.0 6.1 6.1 6.0 6.1 6.3 6.4 6.4 6.4 6.5 6.4 6.3 6.2 6.2
6.1 6.1 6.1 6.1 6.1 5.7 5.7 5.7 5.9 5.9 6.1 5.6 6.0 5.7 6.0 6.2 6.0 6.2 6.1 6.1 6.2 6.2 6.3 6.2 6.1 6.3 6.3 6.3 6.0 5.8 5.9 6.1 6.1 6.1 5.9 5.9 6.1 6.2 6.2 6.3 6.4 6.3 6.2 6.2 6.2 6.2 6.2 6.1 6.1
5.7 5.9 5.9 6.0 6.0 5.9 5.9 5.5 5.6 5.5 5.4 5.8 5.8 6.0 6.2 6.0 5.9 6.1 6.1 6.1 6.1 6.0 6.1 6.0 6.1 6.0 6.2 6.3 6.0 5.9 5.8 5.9 5.9 5.8 6.0 6.1 6.2 6.3 6.3 6.2 6.2 6.2 6.1 6.1 6.1 6.1 6.1 6.3 6.1
5.6 5.8 5.9 5.9 5.7 5.9 5.8 5.5 5.3 5.3 5.5 5.5 5.8 6.0 5.9 5.8 5.8 6.1 6.1 5.9 6.0 5.8 6.0 6.1 5.9 6.1 5.9 5.7 5.7 5.9 5.8 5.7 5.7 5.8 6.0 6.1 6.1 6.1 6.2 6.2 6.2 6.2 6.1 6.0 6.1 6.0 6.1 6.3 6.2
5.5 5.7 5.8 5.9 5.6 5.5 5.9 5.5 5.7 5.3 5.5 5.3 5.3 5.7 5.8 5.7 5.7 5.8 5.9 6.0 6.1 5.9 5.9 6.0 5.9 6.0 5.6 5.3 5.4 5.7 5.7 5.8 5.9 5.8 5.9 6.1 6.1 6.2 6.2 6.3 6.2 6.0 6.0 6.0 6.0 5.9 6.3 6.3 6.3
5.8 5.9 5.9 5.8 5.9 5.6 5.7 5.7 5.3 5.7 5.7 5.5 5.4 5.6 5.4 5.0 5.4 5.6 5.8 5.7 5.8 5.9 5.9 5.9 5.9 5.7 5.6 5.4 5.6 5.5 5.5 5.6 5.7 5.8 5.9 6.1 6.2 6.2 6.2 6.1 6.0 5.9 5.8 5.8 5.8 6.0 6.2 6.2 6.2
5.6 5.9 6.0 5.9 6.0 6.1 6.1 5.5 5.7 5.6 5.7 5.4 5.4 5.4 5.1 5.0 5.1 5.6 5.8 5.6 5.6 5.8 5.9 5.9 5.7 5.5 5.4 5.4 5.4 5.4 5.3 5.6 5.8 5.8 5.9 6.1 6.2 6.1 6.0 5.9 5.8 5.7 5.7 5.8 5.9 6.1 6.1 6.1 6.2
5.8 5.8 5.8 5.8 5.8 6.1 5.7 5.4 5.5 5.4 5.2 5.1 4.9 5.1 5.0 5.2 4.9 5.3 5.7 5.5 5.4 5.6 5.8 5.7 5.4 5.3 5.2 5.2 5.2 5.5 5.5 5.7 5.8 5.8 6.0 6.1 6.0 5.9 5.8 5.7 5.7 5.6 5.8 5.8 6.0 6.0 6.0 6.0 6.2
5.8 5.8 5.9 5.6 5.6 5.7 5.5 5.5 5.3 5.5 5.6 5.0 5.0 5.0 5.0 5.2 5.0 5.1 5.8 5.1 5.5 5.5 5.6 5.5 5.3 5.2 5.1 5.2 5.3 5.5 5.7 5.8 5.9 5.9 5.9 5.9 5.8 5.7 5.7 5.7 5.6 5.6 5.8 5.8 6.0 6.0 6.0 6.1 6.3
6.2 7.3 6.6 5.6 5.7 5.7 5.8 5.5 5.5 5.5 5.0 5.1 5.1 5.1 5.1 4.9 5.0 5.2 5.5 5.6 5.5 5.4 5.4 5.4 5.4 5.1 5.0 5.2 5.3 5.7 5.7 5.8 6.0 6.1 6.2 6.1 5.8 5.9 5.8 5.5 5.5 5.5 5.6 5.8 5.9 6.1 6.0 6.2 6.5
7.7 7.2 6.6 6.1 6.0 5.5 5.6 5.5 5.5 5.3 5.5 5.2 5.0 5.3 5.2 5.0 5.0 5.0 5.3 5.5 5.4 5.5 5.5 5.6 5.6 5.4 5.6 5.4 5.5 5.6 5.6 5.7 5.9 6.0 6.1 6.0 5.8 5.7 5.5 5.3 5.3 5.2 5.2 5.6 5.9 5.9 6.1 6.4 6.5
7.2 7.0 6.7 6.0 6.0 5.5 5.5 5.5 5.8 5.4 5.3 5.3 5.4 5.6 5.4 5.1 5.1 5.0 5.1 5.4 5.4 5.5 5.6 5.6 5.7 5.6 5.5 5.5 5.5 5.4 5.4 5.6 5.8 5.9 6.0 5.9 5.7 5.7 5.4 5.1 5.1 5.1 5.4 5.7 5.8 5.9 6.1 6.3 6.5
7.5 7.4 6.8 6.2 6.2 5.9 5.5 5.5 5.8 5.6 5.1 4.8 5.4 5.2 5.3 5.3 5.3 5.0 5.1 5.2 5.2 5.4 5.5 5.5 5.5 5.6 5.4 5.4 5.4 5.5 5.5 5.6 5.7 5.8 5.7 5.7 5.6 5.5 5.3 5.2 5.1 5.1 5.1 5.3 5.6 5.9 6.1 6.2 6.2
7.9 8.1 7.3 6.8 6.2 6.1 5.8 5.9 5.9 5.9 5.1 4.9 5.2 5.1 5.4 5.5 5.5 5.1 5.5 5.3 5.2 5.4 5.5 5.7 5.4 5.4 5.5 5.5 5.5 5.4 5.5 5.6 5.7 5.8 5.8 5.7 5.5 5.6 5.4 5.2 5.1 5.1 5.1 5.1 5.5 6.0 6.1 5.6 6.2
9.4 7.8 7.2 6.7 6.6 7.2 6.2 7.7 5.9 6.2 6.2 5.4 5.0 4.9 5.5 5.6 5.4 5.3 5.3 5.5 5.3 5.0 5.4 5.6 5.5 5.3 5.4 5.3 5.3 5.4 5.4 5.4 5.4 5.5 5.8 5.9 5.7 5.5 5.4 5.2 5.2 5.3 5.3 5.3 5.2 5.5 5.7 5.8 5.8
9.2 7.8 7.4 7.2 7.1 6.9 7.1 6.9 6.6 6.4 6.1 6.3 6.1 5.3 5.4 5.4 5.3 5.5 5.4 5.0 5.2 5.0 5.1 5.5 5.7 5.5 5.5 5.5 5.4 5.3 5.4 5.4 5.5 5.7 5.7 5.5 5.5 5.5 5.4 5.3 5.3 5.4 5.4 5.5 5.4 5.5 5.7 5.7 5.8
7.8 7.8 7.3 7.1 7.4 7.7 7.8 7.4 7.8 6.4 6.8 6.0 5.9 5.9 5.5 5.6 5.6 5.4 5.4 5.1 4.7 5.2 5.1 5.4 5.7 5.9 5.5 5.4 5.3 5.3 5.6 5.6 5.6 5.7 5.7 5.5 5.4 5.3 5.3 5.4 5.6 5.6 5.6 5.7 5.6 5.6 5.7 5.9 6.1
7.9 8.3 9.2 9.0 8.6 9.1 7.3 7.3 7.8 6.8 6.5 6.5 6.1 6.1 6.1 5.6 5.6 5.4 5.3 5.3 4.8 5.2 5.4 5.4 5.6 5.8 5.8 5.5 5.3 5.3 5.5 5.5 5.3 5.4 5.6 5.7 5.6 5.5 5.5 5.4 5.5 5.7 5.6 5.6 5.7 5.8 5.8 5.9 6.0
8.4 9.1 9.5 8.7 8.4 8.4 7.3 7.7 7.9 7.0 7.3 7.0 6.8 6.3 6.0 6.4 5.9 5.4 5.5 5.8 5.5 5.3 5.4 5.4 5.6 5.7 5.7 5.6 5.5 5.4 5.4 5.2 5.2 5.3 5.4 5.5 5.6 5.7 5.7 5.6 5.5 5.5 5.6 5.6 5.6 5.8 5.8 5.8 5.9
8.9 8.5 9.2 8.9 8.5 8.8 8.9 8.1 7.4 7.1 6.9 7.0 6.8 6.2 5.7 6.1 5.8 5.5 5.6 5.9 5.6 5.4 5.4 5.4 5.3 5.5 5.6 5.5 5.4 5.4 5.2 5.2 5.4 5.3 5.3 5.3 5.6 5.5 5.7 5.6 5.6 5.6 5.6 5.7 5.7 5.7 5.8 5.8 5.9
8.5 9.2 9.0 9.1 8.5 8.3 9.1 8.9 8.1 7.3 7.8 7.8 7.0 6.5 5.9 6.1 6.0 5.5 5.6 5.9 5.7 5.5 5.3 5.4 5.3 5.3 5.4 5.5 5.5 5.4 5.3 5.4 5.5 5.4 5.3 5.5 5.4 5.5 5.6 5.8 5.8 5.9 5.9 5.9 5.9 5.9 6.0 6.0 6.0
8.5 8.8 8.8 8.7 8.7 7.8 8.2 7.4 8.2 8.3 8.4 8.0 7.6 6.4 5.9 5.5 5.7 5.4 5.5 6.1 6.0 5.5 5.4 5.3 5.3 5.4 5.6 5.8 5.6 5.5 5.5 5.5 5.7 5.6 5.4 5.5 5.5 5.5 5.5 5.7 5.9 5.9 5.9 5.9 5.9 6.0 5.9 6.0 6.0
8.7 8.1 8.8 8.5 7.5 8.9 6.8 8.4 7.9 8.6 8.7 8.1 7.6 7.1 6.6 5.8 5.9 5.8 6.1 6.0 6.0 5.6 5.5 5.4 5.2 5.4 5.6 5.7 5.7 5.7 5.6 5.5 5.6 5.7 5.7 5.6 5.5 5.5 5.6 5.6 5.8 5.8 5.9 6.0 5.9 5.9 5.9 6.0 6.0
Wind_Speed
10 8 2 4 5 3 10 7 12 13 12 5 9 1 10 10 8 8 15 10 13 13 15 14 11 13 13 14 15 16 16 16 15 16 16 15 15 15 14 13 13 13 14 16 17 16 13 13 13
4 3 3 3 4 9 8 9 14 10 11 13 9 8 4 8 10 14 12 13 12 12 13 15 11 13 13 13 15 16 16 15 15 16 15 15 15 14 14 13 13 13 16 15 15 13 15 17 17
3 1 3 3 0 8 10 10 15 10 13 7 5 8 4 6 14 7 17 14 13 11 12 14 10 12 14 13 14 15 13 14 15 15 14 14 15 15 15 14 14 15 14 15 15 15 15 16 16
3 1 3 4 10 5 8 12 14 15 9 3 10 9 8 10 7 11 15 13 13 11 17 13 10 10 13 14 15 14 14 14 15 15 14 14 15 15 15 15 15 15 15 15 15 15 14 15 16
2 2 1 7 10 11 10 13 13 13 7 7 0 9 12 6 11 17 15 11 12 11 16 16 11 11 15 15 14 13 12 14 15 14 13 14 14 15 15 15 15 14 14 14 13 15 15 14 14
3 3 3 7 12 11 10 9 9 7 9 8 13 17 9 11 15 14 13 11 10 9 13 13 11 11 12 15 13 13 12 12 13 13 13 14 14 14 14 14 13 13 13 14 15 14 14 13 13
1 1 3 11 13 12 8 6 6 6 8 9 12 13 9 14 15 13 12 10 9 9 9 12 13 12 10 11 12 11 12 15 11 12 13 15 14 14 13 12 12 12 12 13 13 12 10 11 11
1 2 4 3 9 9 4 7 6 4 8 11 9 7 16 17 15 13 12 11 10 9 9 12 10 12 12 13 12 13 12 15 14 14 13 16 15 13 12 12 10 10 10 10 10 10 10 9 9
1 2 5 4 5 6 5 6 5 4 10 7 3 7 20 19 16 14 12 11 10 8 8 6 11 11 9 13 15 16 13 12 14 14 10 10 12 11 11 12 8 8 7 8 8 7 7 8 8
3 2 4 6 7 4 4 2 5 7 10 9 10 15 20 19 16 14 12 11 10 10 11 7 9 8 12 11 12 16 13 10 9 9 9 10 8 11 13 10 7 7 6 6 6 5 5 11 8
2 2 6 8 10 7 2 3 3 9 7 10 14 20 20 18 14 12 11 10 11 11 8 9 9 8 12 8 13 12 12 9 9 9 8 9 10 10 10 9 9 9 6 6 7 7 3 5 3
6 7 4 7 11 2 7 2 4 3 6 3 16 18 18 16 14 12 11 11 11 10 10 11 11 7 7 10 9 9 10 9 10 11 8 9 9 6 5 6 6 5 3 3 1 5 3 1 2
5 7 7 6 5 7 5 5 3 7 5 14 16 17 16 14 13 10 9 10 10 11 10 10 11 8 7 7 7 8 8 8 11 10 8 6 7 5 5 5 5 3 3 4 3 3 5 4 6
6 10 10 8 7 9 7 4 4 6 8 13 15 15 15 13 12 10 9 10 10 10 10 11 10 9 10 6 7 7 7 9 8 9 9 5 5 3 6 4 5 5 3 3 2 3 2 4 10
12 12 10 6 5 6 11 3 2 4 5 12 15 13 12 11 10 10 10 11 11 10 11 12 11 12 10 9 9 8 9 10 8 8 7 4 2 5 3 4 4 4 3 2 3 3 3 5 9
5 7 6 5 7 8 7 5 13 8 9 12 15 13 12 12 11 9 10 10 11 11 11 12 11 12 10 9 9 8 8 8 8 8 7 4 5 4 4 5 5 4 1 1 1 3 4 4 6
7 3 3 6 5 5 10 3 16 12 7 10 14 14 13 12 11 10 11 10 12 11 12 12 11 11 11 10 9 8 8 6 8 7 6 5 5 4 2 4 5 1 2 3 1 4 3 5 5
8 4 3 5 7 8 7 3 13 12 12 13 14 15 14 14 15 13 12 11 12 12 12 10 9 11 9 8 7 7 7 7 7 6 6 6 5 4 4 5 3 1 2 4 3 2 3 2 2
2 2 1 4 8 8 7 6 11 16 14 13 12 14 17 15 14 14 13 12 13 13 12 13 11 11 9 8 8 7 8 7 6 6 6 5 3 2 4 3 3 2 2 4 3 4 4 4 2
4 2 4 5 6 7 4 8 10 12 17 14 16 19 17 18 15 14 14 14 14 14 13 12 11 11 9 8 7 7 7 8 7 7 7 6 6 4 3 1 2 1 2 2 2 2 2 2 2
8 5 3 6 7 8 6 10 12 12 12 11 21 20 20 18 16 16 15 15 14 14 14 13 11 12 11 10 7 6 4 4 5 5 6 9 7 5 3 2 3 2 5 3 1 1 3 2 3
10 4 2 1 6 4 4 2 12 14 16 14 22 19 18 19 17 16 17 16 16 15 14 13 12 12 12 11 10 10 9 8 7 7 5 6 8 5 4 2 3 3 4 1 1 1 5 5 1
3 1 5 5 8 9 8 7 7 14 17 19 22 22 21 19 17 16 17 17 16 15 15 14 12 12 13 13 10 8 9 7 7 6 7 5 7 7 7 5 3 4 6 2 2 2 3 3 5
4 6 5 6 7 10 3 9 6 8 16 16 22 22 21 20 18 17 16 16 15 15 14 14 14 12 12 11 11 12 11 7 7 8 7 7 8 7 9 7 5 5 4 4 3 0 1 3 3
11 11 8 6 6 6 2 6 8 3 3 11 17 23 20 20 19 18 16 16 16 16 16 14 15 15 13 13 12 12 10 11 9 7 8 6 7 7 9 9 7 6 6 5 5 3 1 2 3
15 16 10 4 6 6 3 5 7 8 6 9 13 16 21 22 20 19 18 17 18 17 17 16 16 15 15 14 13 11 9 6 8 9 6 7 6 7 7 9 9 8 7 8 7 6 6 4 4
13 11 13 5 12 6 6 5 8 3 8 2 8 12 18 23 20 20 19 18 18 17 17 17 16 15 15 16 13 12 10 11 10 7 8 7 7 6 7 10 8 9 9 8 8 7 6 4 5
11 9 9 9 4 5 5 2 8 11 10 5 7 8 13 19 16 17 17 18 17 17 17 16 16 16 15 14 13 11 12 12 10 8 10 10 6 8 6 8 8 9 10 9 8 7 7 6 6
8 11 9 2 6 3 3 3 7 8 9 9 4 6 12 15 15 16 15 16 17 16 16 16 15 16 16 15 14 13 12 12 10 9 9 10 8 8 9 8 9 9 10 9 8 8 7 8 8
9 12 12 6 8 3 5 2 5 6 7 10 4 4 4 5 10 13 10 11 13 16 15 15 15 15 16 15 14 14 13 11 12 10 10 9 8 9 9 9 9 10 10 11 10 10 9 10 10
Wind_Direction
195 206 250 231 226 194 118 112 110 122 132 111 114 97 75 26 7 81 121 124 128 130 124 119 106 108 101 97 100 100 103 104 101 104 93 94 92 91 92 95 100 101 92 88 86 86 87 95 96
199 229 239 261 205 125 104 122 130 141 122 120 113 125 79 73 82 115 121 133 135 126 126 115 112 108 104 102 106 105 104 105 98 93 96 92 93 93 92 94 91 94 90 88 87 88 89 92 92
193 250 268 289 116 96 115 137 129 117 131 135 106 52 40 81 119 101 118 132 131 118 110 102 108 104 105 108 110 107 98 108 102 98 98 95 91 91 93 95 92 89 84 89 88 96 97 96 97
251 106 224 240 107 88 112 135 130 135 129 59 114 92 89 105 105 119 134 135 126 132 104 115 112 107 112 108 107 103 102 103 101 101 100 100 100 93 94 95 94 89 88 90 93 96 98 99 98
235 188 176 95 99 100 106 125 136 144 118 120 74 110 108 95 111 129 131 141 128 128 122 117 110 103 116 114 108 107 104 106 104 103 97 104 98 101 97 95 100 91 92 89 88 106 99 97 100
226 253 155 129 112 108 109 131 135 117 131 118 119 124 92 118 134 134 135 138 134 120 115 125 111 106 110 120 110 111 108 104 103 102 100 99 94 95 95 94 95 92 86 82 91 103 97 93 98
290 340 99 131 125 114 96 139 126 145 139 131 135 133 119 141 130 134 141 128 128 127 114 129 128 119 110 118 123 116 120 107 106 105 101 106 101 94 96 102 101 95 92 88 92 99 100 98 92
248 31 126 128 154 115 82 94 111 112 75 115 140 156 154 138 140 140 142 138 132 137 119 127 156 126 142 123 114 102 104 120 111 109 105 107 104 105 111 120 101 98 95 92 93 92 89 110 99
264 152 155 166 142 110 95 124 83 95 141 139 92 150 134 145 149 149 145 137 147 140 128 138 131 128 125 125 119 112 117 104 108 106 110 170 108 121 117 75 102 107 107 102 101 103 100 129 135
282 139 135 160 142 164 60 47 115 144 139 133 109 109 133 150 155 157 160 157 150 147 137 178 112 144 139 125 128 112 114 109 105 117 119 110 103 63 92 98 107 105 111 120 122 128 188 224 134
84 69 121 147 147 187 170 133 161 149 164 153 148 141 149 158 163 165 161 159 156 146 145 140 143 161 121 138 131 128 121 129 122 117 118 112 131 139 119 131 150 141 189 159 176 181 222 46 40
109 75 59 133 162 146 166 331 90 78 29 138 144 147 152 165 167 165 161 158 146 145 157 144 140 132 136 149 132 135 130 135 139 116 132 137 134 128 114 105 113 150 123 117 258 94 46 78 129
118 103 92 122 137 144 25 44 97 53 85 131 138 150 157 167 161 152 149 149 157 160 157 148 145 146 134 148 145 126 124 143 126 149 128 134 124 115 125 119 118 87 134 100 109 73 49 106 110
115 102 112 132 114 134 98 20 42 7 127 143 152 159 165 166 156 149 156 157 162 160 160 144 155 157 143 151 145 138 156 133 153 141 133 147 130 124 127 134 127 116 96 95 75 45 51 88 105
132 123 122 137 143 102 105 335 143 295 237 166 175 171 168 167 163 162 159 160 162 167 156 152 160 162 159 160 155 165 160 158 150 138 152 138 179 126 126 120 143 102 115 175 169 180 146 121 110
198 183 192 124 174 151 190 184 213 215 261 187 182 180 180 170 175 172 163 168 152 153 158 163 168 163 165 152 162 161 158 162 159 154 157 145 133 133 173 157 110 99 109 160 150 177 131 125 127
187 222 186 155 201 165 209 166 181 192 214 263 192 184 192 182 188 178 167 172 156 156 162 167 161 161 159 151 167 169 152 179 160 161 164 144 151 141 171 140 106 148 101 76 169 149 153 139 142
173 207 204 163 175 207 199 162 176 185 195 219 240 196 195 196 188 178 173 170 168 163 167 170 158 154 165 156 166 171 166 169 166 174 162 165 158 166 204 122 110 277 137 93 76 130 138 158 164
39 334 1 124 168 197 206 209 182 193 202 215 234 230 193 208 179 170 176 173 171 171 176 172 169 161 159 163 165 166 172 164 176 179 155 157 155 150 166 140 175 213 90 49 137 164 174 154 153
231 170 111 120 159 243 200 207 180 195 209 214 227 240 208 202 186 177 180 176 178 179 183 177 183 175 180 165 170 177 171 175 174 179 172 181 187 187 173 268 203 309 133 96 119 242 173 166 161
227 267 139 348 184 229 246 226 181 204 190 210 222 228 220 200 196 180 188 184 182 179 185 180 189 181 192 174 168 168 135 122 175 173 195 183 195 205 199 212 279 237 281 133 87 167 284 143 150
220 197 218 223 256 309 226 292 196 186 196 207 206 218 214 207 201 186 189 191 187 180 185 178 186 187 190 192 181 179 179 180 184 184 189 168 185 181 189 223 224 239 300 330 138 354 328 302 169
337 214 192 273 272 285 212 259 121 178 202 198 212 210 208 200 206 200 191 190 191 180 182 181 184 184 189 193 201 180 219 174 187 168 169 217 171 194 197 189 199 214 244 178 290 323 338 299 312
111 203 224 255 271 261 206 253 122 165 228 210 201 210 210 205 199 199 199 190 193 184 187 181 181 188 197 196 203 206 203 207 189 189 189 191 188 193 200 201 203 204 227 224 230 267 42 0 11
208 224 236 233 222 258 84 255 67 80 260 244 205 203 208 212 196 201 194 193 193 189 190 186 186 191 193 200 204 204 209 204 205 197 221 203 195 202 180 207 207 202 211 225 233 211 201 250 320
216 235 251 255 277 315 161 227 110 44 350 240 241 209 203 216 204 199 190 194 192 192 195 191 190 197 193 203 211 214 210 208 227 208 232 218 221 205 177 206 210 212 210 214 214 225 239 193 236
190 235 278 278 287 257 170 142 160 21 12 324 209 213 197 208 214 196 189 196 191 191 196 196 192 199 203 207 210 217 214 227 224 218 207 225 261 225 204 212 215 227 219 218 213 238 217 252 237
277 225 215 230 276 265 149 156 59 356 358 353 246 218 220 190 215 199 195 196 193 192 193 198 197 197 200 208 207 211 214 217 225 219 214 237 219 244 268 232 224 217 223 220 220 224 209 229 238
187 221 248 256 288 291 283 358 20 4 355 338 245 224 188 193 205 206 200 199 194 194 195 195 199 199 201 206 208 215 213 219 219 219 222 219 234 236 222 224 230 230 228 221 222 247 260 223 235
297 282 180 181 271 250 224 148 38 27 14 4 45 196 184 165 182 212 205 214 205 197 200 196 196 201 206 205 208 210 216 222 220 221 224 226 211 213 226 233 233 232 225 228 221 234 253 237 240